Location: Clermont
(50.2608°N, 4.3172°E)
Time: 05:34:40
(UTC+00:00)

Cosmos 921 Rocket - Pass Details

Date: 13 August 2020
Orbit: 572 x 631 km, 75.8° (Epoch: 19 September)

Event Time Altitude Azimuth Distance (km) Brightness Sun altitude
Rises 20:48:13 0° 334° (NNW) 2,811 7.9 -14.4°
Reaches altitude 10° 20:50:31 10° 327° (NNW) 1,900 6.9 -14.7°
Maximum altitude 20:54:30 43° 257° (WSW) 814 3.9 -15.1°
Enters shadow 20:57:44 15° 189° (S) 1,603 4.8 -15.5°
